Location: Writing-on-Stone Provincial Park
(49.0825°N, 111.6163°W)
Time: 13:19:50
(UTC-06:00)

Daily predictions for brighter satellites

Satellite Brightness Start Highest point End
(mag) Time Altitude Azimuth Time Altitude Azimuth Time Altitude Azimuth
COSMOS 2406 3.8 22:07:41 10° NNW 22:13:20 51° NE 22:18:55 10° SE
Terra 3.2 22:11:30 10° ESE 22:15:26 26° ENE 22:19:23 10° N
Cosmos 2285 Rocket 4.2 22:11:28 10° S 22:17:37 56° ESE 22:23:46 10° NNE
USA 238 DEB 4.0 22:12:41 10° NW 22:19:50 76° NE 22:27:05 10° SE
USA 238 4.0 22:12:48 10° NW 22:19:56 76° NE 22:27:11 10° SE
NOSS 2-3 (D) 4.1 22:16:23 10° SW 22:21:05 81° NW 22:26:47 10° NE
ARGOS 3.5 22:16:34 10° S 22:21:58 68° WSW 22:27:24 10° NNW
ATLAS 3B R/B 2.9 22:16:33 10° NW 22:23:14 63° NE 22:29:44 10° SE
Cosmos 1844 4.3 22:24:37 10° S 22:29:46 36° ESE 22:35:00 10° NE
Cosmos 1844 Rocket 3.0 22:27:27 10° S 22:32:52 48° ESE 22:38:18 10° NE
NOSS 3-2 (A) 4.3 22:25:59 10° NW 22:33:16 66° NE 22:41:20 10° SE
CARTOSAT-1 4.4 22:30:23 10° SE 22:34:24 39° ENE 22:38:26 10° N
Meteor 1-24 Rocket 3.9 22:28:53 10° S 22:34:55 80° E 22:40:57 10° NNE
Cosmos 724 4.5 22:29:24 10° NW 22:35:25 80° SW 22:41:30 10° SSE
S3M 4.5 22:30:42 10° SSE 22:36:42 46° E 22:42:44 10° NNE
CZ-2C R/B 4.1 22:35:01 10° SE 22:40:26 42° ENE 22:45:48 10° N
SPOT 5 3.1 22:38:49 10° SSE 22:43:53 82° ENE 22:49:12 10° NNW
Iridium 18 4.4 22:41:08 10° S 22:44:23 73° E 22:48:13 10° N
Meteor 2-5 Rocket 4.4 22:39:14 10° SSW 22:45:07 62° WNW 22:50:59 10° N
Cosmos 1908 3.2 22:42:32 10° N 22:46:26 86° W 22:50:18 10° S
Cosmos-2242 3.6 22:46:21 10° NNW 22:50:40 56° W 22:54:58 10° S
ATLAS 2AS CENTAUR R/B 3.1 22:43:05 10° SSW 22:50:50 64° ESE 22:58:51 10° NE
Lacrosse 5 1.8 22:46:50 10° SW 22:51:50 65° SE 22:56:52 10° ENE
Cosmos 2082 Rocket 3.7 22:46:55 10° NNW 22:51:52 29° NE 22:56:46 10° ESE
Cosmos 1238 Rocket 3.1 22:49:11 10° SSW 22:52:01 46° WNW 22:55:00 10° N
IGS 5A 3.7 22:48:33 12° SSE 22:52:15 57° ENE 22:56:21 10° N
ERS-1 Rocket 3.5 22:47:41 10° S 22:52:38 58° W 22:57:38 10° NNW
Meteor 1-29 4.0 22:52:43 10° NE 22:55:45 29° E 22:57:57 15° SSE
Cosmos 1842 Rocket 3.6 22:52:21 10° N 22:56:41 66° ENE 23:00:26 14° SSE
NOSS 3-2 (C) 4.2 22:49:51 10° NW 22:57:09 68° NE 23:05:07 11° SE
Meteor 2-1 Rocket 4.5 22:53:11 10° NNW 22:59:08 78° W 23:05:01 10° S
Cosmos 1833 Rocket 3.9 22:54:05 10° NNW 22:59:11 34° NE 23:04:15 10° ESE
GENESIS II 4.2 22:56:27 10° SW 23:00:21 86° NW 23:04:18 10° NE
Cosmos 2084 4.5 22:57:22 10° WNW 23:00:49 31° WSW 23:03:54 12° S
Cosmos 1553 Rocket 3.9 22:54:57 10° S 23:00:59 76° E 23:07:05 10° NNE
Cosmos 2263 Rocket 4.3 22:59:01 10° WSW 23:04:03 31° NW 23:09:06 10° NNE
Cosmos 1340 2.7 23:03:45 10° NNW 23:07:33 82° W 23:10:42 15° S
SL-8 R/B 4.2 23:05:18 10° SW 23:09:43 37° SSE 23:14:10 10° E
Cosmos 1626 3.6 23:09:55 16° SE 23:11:47 22° E 23:14:45 10° NE
CZ-2C R/B 3.4 23:08:43 10° NNE 23:13:42 35° E 23:17:21 16° SSE
Helios 1A 3.7 23:13:03 11° S 23:16:57 49° W 23:21:04 10° NNW
Cosmos 1455 4.1 23:16:07 10° NNE 23:18:47 18° ENE 23:21:04 12° ESE
Cosmos 1300 2.7 23:15:29 10° N 23:19:19 73° E 23:21:58 19° SSE
BREEZE-M DEB (TANK) 2.6 23:14:18 10° WSW 23:20:37 59° SSE 23:23:11 10° E
BREEZE-M R/B 4.2 23:13:29 10° WNW 23:20:42 86° SSW 23:26:42 10° ESE
Cosmos 1386 Rocket 4.4 23:15:41 10° N 23:21:51 88° E 23:26:58 15° S
Cosmos 1674 3.7 23:19:18 10° SSW 23:22:59 46° WNW 23:26:43 10° N
Helios 1B rocket 2.4 23:22:41 10° NNE 23:26:50 89° W 23:30:43 11° SSW
Cosmos 807 4.0 23:25:33 19° S 23:27:30 81° E 23:30:46 10° N
NOSS 3-4 (A) 4.1 23:22:58 12° S 23:28:03 36° ESE 23:33:49 10° NE
NOSS 3-4 (C) 4.1 23:23:09 12° S 23:28:08 36° ESE 23:33:53 10° NE
CENTAUR R/B 3.5 23:25:25 10° NW 23:33:03 63° NE 23:41:22 10° ESE
Meteor 1-21 Rocket 4.3 23:32:08 10° S 23:37:57 90° ESE 23:43:47 10° NNE
H-2A R/B 4.3 23:35:55 10° SW 23:39:44 20° W 23:43:38 10° NW
Cosmos 2221 2.5 23:35:44 10° N 23:40:06 84° W 23:42:59 21° S
APEX 3.5 23:38:26 10° NW 23:41:17 41° WSW 23:43:01 22° S
Cosmos 1726 3.9 23:39:37 10° NNW 23:42:49 27° W 23:46:02 10° SSW
SL-27 R/B 3.6 23:42:00 10° N 23:45:25 36° ENE 23:47:26 20° ESE
SL-14 R/B 3.4 23:46:28 16° SSW 23:49:27 71° W 23:53:24 10° N
Cosmos 2278 Rocket 2.2 23:47:06 13° SSW 23:52:12 67° ESE 23:57:52 10° NNE
Terra 2.6 23:49:22 16° SSW 23:52:58 45° W 23:57:33 10° NNW
